Regional Weather Roundup
Issued by NWS

Home | Current Version | Previous Version | Text Only | Print | Product List | Glossary On
Versions: 1 2 3 4 5 6 7 8 9 10 11 12 13 14 15 16 17 18 19 20 21 22 23 24 25 26 27 28 29 30 31 32 33 34 35 36 37 38 39 40 41 42 43 44 45 46 47 48 49 50
130
ASUS44 KJAN 291603
RWRMS

MISSISSIPPI HOURLY WEATHER ROUNDUP
NATIONAL WEATHER SERVICE JACKSON MS
1100 AM CDT FRI AUG 29 2014

NOTE: "FAIR: INDICATES FEW OR NO CLOUDS BELOW 12,000 FEET WITH NO
SIGNIFICANT WEATHER AND/OR OBSTRUCTIONS TO VISIBILITY.

MSZ001>002-007>008-010>013-018>021-025>028-034>036-291700-
NORTHWEST MISSISSIPPI

CITY           SKY/WX    TMP DP  RH WIND       PRES   REMARKS
CLARKSDALE     FAIR      88  73  62 CALM      29.99F HX  96
CLEVELAND      FAIR      87  75  68 NW3       29.98S HX  97
GREENWOOD      SUNNY     87  73  62 VRB3      29.99S HX  94
GREENVILLE     SUNNY     89  73  59 S5        29.97S HX  97
GRENADA        FAIR      86  70  58 S5        30.00F HX  90
OLIVE BRANCH   MOSUNNY   86  72  62 SW7       30.00S HX  92
OXFORD         FAIR      84  68  58 SW5       30.02F
TUNICA         SUNNY     86  72  62 S6        29.99F HX  92
$$

MSZ003>006-009-014>017-022>024-029>033-037>039-291700-
NORTHEAST MISSISSIPPI

CITY           SKY/WX    TMP DP  RH WIND       PRES   REMARKS
BELMONT        FAIR      84  68  57 S6        30.03S
COLUMBUS AFB   MOSUNNY   87  67  52 S7        30.02R
CORINTH        FAIR      84  68  58 SE3       30.01S
GOLDN TRIANGLE SUNNY     88  66  48 SE7       30.03R HX  90
STARKVILLE     FAIR      86  70  58 E5        30.02R HX  90
TUPELO         MOSUNNY   86  67  52 S7        30.01S
$$

MSZ040-058-291700-
CENTRAL MISSISSIPPI

CITY           SKY/WX    TMP DP  RH WIND       PRES   REMARKS
JACKSON INTL   MOSUNNY   88  71  57 S7        30.01R HX  94
JACKSON HAWKNS SUNNY     87  70  56 SE5       30.02R HX  92
MERIDIAN KEY   MOSUNNY   88  65  46 SE9       30.03R HX  90
MERIDIAN NAS   PTSUNNY   89  69  51 VRB5      30.03R HX  93
RAYMOND        FAIR      86  82  89 SE3       30.01R HX 105
VICKSBURG      MOSUNNY   88  72  58 VRB6      29.99R HX  94
$$

MSZ059>079-291700-
SOUTH MISSISSIPPI

CITY           SKY/WX    TMP DP  RH WIND       PRES   REMARKS
BROOKHAVEN     FAIR      86  72  62 CALM      30.03S HX  92
COLUMBIA       FAIR      86  72  62 E8        29.99F HX  92
HATTIESBURG    MOSUNNY   88  71  57 E8        30.02R HX  94
MCCOMB         SUNNY     86  70  58 E7        30.00S HX  90
NATCHEZ        SUNNY     86  73  66 SE8       30.00S HX  93
PINE BELT      SUNNY    N/A N/A N/A SE10      30.03F
$$

MSZ080>082-291700-
COASTAL MISSISSIPPI

CITY           SKY/WX    TMP DP  RH WIND       PRES   REMARKS
BAY ST LOUIS   MOSUNNY  N/A N/A N/A E9G18     29.99F
BILOXI         MOSUNNY   89  74  62 SE9       29.99F HX  97
PASCAGOULA     PTSUNNY   87  73  62 SE14      29.99F HX  94
GULFPORT       LGT RAIN  82  77  84 SE12      29.98F HX  90
$$



USA.gov is the U.S. government's official web portal to all federal, state and local government web resources and services.